Wind_Speed
17 19 20 22 24 26 27 27 27 26 26 25 24 23 22 21 20 20 20 21 21 20 20 19 17 16 15 15 15 16 16 17 17 18 18 18 18 18 18 18 19 19
17 19 20 23 25 27 28 28 28 27 26 25 23 22 21 20 20 20 21 21 22 21 20 19 17 15 15 15 15 16 17 18 18 18 18 18 18 18 19 19 19 19
18 19 20 23 25 28 29 30 29 28 27 25 24 22 20 20 20 21 21 21 21 21 20 20 18 17 16 16 16 16 17 18 18 19 19 18 18 18 19 19 20 20
19 19 21 23 26 29 30 31 31 29 27 25 24 22 21 20 20 20 21 21 20 20 20 19 19 18 18 17 16 16 17 17 18 19 19 19 20 20 20 20 20 21
20 20 21 24 27 29 31 32 32 30 28 25 24 22 21 21 20 20 20 20 20 20 19 19 19 19 19 18 17 16 17 18 18 19 20 21 21 22 22 22 22 22
21 20 21 24 27 30 32 33 32 30 28 26 24 22 21 20 20 19 20 20 20 19 19 19 19 19 19 18 17 17 18 18 20 21 22 22 23 23 24 24 23 23
21 21 23 25 27 30 32 33 32 30 28 26 24 22 21 20 19 18 18 19 19 19 19 19 20 19 19 18 18 18 19 20 21 22 23 23 23 24 25 25 24 23
23 22 25 27 27 29 32 33 32 31 28 26 24 22 21 20 19 18 18 18 19 19 18 19 20 20 19 18 19 19 20 21 22 23 23 23 24 24 25 26 26 25
23 23 26 27 27 29 32 33 31 29 28 27 26 25 23 21 20 19 19 19 19 19 17 17 18 19 19 18 19 20 21 22 22 22 23 24 24 25 25 25 26 26
23 24 27 27 27 29 32 32 30 29 30 30 29 27 24 23 22 21 21 20 20 19 19 17 17 18 19 19 20 20 21 22 22 22 23 24 24 24 25 25 25 25
24 27 27 26 27 30 31 31 31 31 32 30 28 26 23 22 22 22 22 22 22 21 20 19 18 18 19 19 20 21 21 22 22 22 23 24 24 24 25 25 26 26
26 28 25 25 28 30 30 31 31 30 28 25 22 21 20 19 20 20 21 22 22 22 21 20 20 20 20 20 20 21 22 22 22 22 22 22 23 24 24 24 25 25
28 27 24 25 28 29 29 29 29 27 24 20 19 18 18 18 19 20 20 21 21 21 22 22 22 22 22 22 22 22 22 23 23 23 22 22 22 23 22 22 23 24
27 24 23 26 28 28 28 27 27 25 21 18 17 17 18 18 18 18 19 19 20 22 23 23 23 23 23 23 23 23 22 23 24 24 23 22 21 21 21 22 23 25
26 23 23 26 26 26 27 27 26 23 19 18 17 17 18 18 18 18 18 19 20 22 23 23 23 23 23 23 24 24 23 23 24 25 24 23 22 22 21 22 24 25
25 23 24 26 25 26 27 26 25 22 19 18 18 19 20 20 19 19 19 19 20 22 23 23 22 22 22 23 24 24 24 24 24 25 25 25 25 24 22 22 23 24
22 23 25 25 25 26 26 25 24 22 20 20 21 23 23 23 22 21 20 20 20 21 21 20 21 21 21 21 22 23 23 23 24 24 24 25 25 25 24 23 23 23
20 23 24 25 26 26 25 25 23 22 22 23 25 26 26 25 24 24 23 21 21 21 20 19 20 20 20 20 20 21 22 23 23 24 24 24 25 25 25 25 24 24
21 23 23 24 25 25 24 24 23 23 24 25 26 27 27 26 26 25 25 23 22 21 20 20 20 20 20 21 20 21 22 23 24 25 25 25 25 25 26 26 26 25
22 22 23 24 23 24 24 24 24 24 24 24 26 27 27 27 26 26 26 25 24 22 22 21 21 20 20 21 21 22 23 24 24 25 25 26 25 25 26 27 27 26
21 22 22 22 23 24 24 24 24 24 24 25 25 26 26 26 26 26 26 26 25 24 23 22 21 21 21 21 22 22 22 24 24 25 25 25 24 25 26 27 27 26
20 21 22 23 24 25 25 25 26 26 26 26 26 26 26 26 26 26 27 27 27 26 25 24 22 21 21 22 22 22 22 24 25 25 24 23 23 24 25 25 25 25
20 22 23 25 25 26 27 27 27 27 28 28 27 27 26 25 26 27 28 29 28 28 27 25 23 22 22 22 23 23 23 24 25 24 22 21 22 23 23 23 23 24
21 23 25 26 26 28 29 29 29 29 29 29 28 27 27 26 27 28 29 30 30 29 29 27 26 24 23 23 23 24 24 24 25 23 21 20 21 21 21 22 23 23
22 25 26 28 29 30 31 31 31 31 31 30 28 27 27 28 28 29 30 30 31 31 30 28 27 25 23 22 23 23 24 24 24 23 20 19 20 21 20 21 22 23
25 28 30 32 34 35 35 35 34 33 31 28 26 26 27 28 29 30 30 30 30 30 28 27 27 25 22 21 22 23 24 24 23 22 21 20 20 21 21 20 21 21
Wind_Direction
325 328 332 334 336 338 340 341 340 337 332 329 327 327 328 327 328 328 328 327 325 324 323 323 323 320 317 316 313 310 309 309 311 312 312 311 311 311 310 310 310 309
317 322 326 329 332 336 339 341 340 338 334 331 329 328 328 328 328 327 327 326 325 324 323 322 321 319 316 313 310 306 305 307 309 310 310 309 311 313 313 313 313 313
310 315 321 327 330 333 336 339 339 338 337 334 330 328 328 328 327 326 325 325 324 324 323 321 320 318 315 312 309 306 304 305 306 307 308 307 309 310 311 313 314 314
304 311 318 324 327 330 334 337 339 339 338 334 330 328 328 328 327 325 323 324 324 323 322 320 318 316 314 312 311 310 309 308 307 307 309 309 309 310 310 312 312 312
301 309 317 322 325 328 331 335 337 338 337 334 330 328 328 329 328 325 324 325 324 323 322 319 317 316 315 314 314 314 313 312 311 311 311 311 312 311 310 309 309 310
299 308 316 321 323 325 328 332 335 336 336 334 331 329 329 329 329 327 325 325 325 324 321 319 317 316 315 315 314 313 312 312 312 313 312 312 312 311 311 310 309 308
295 305 314 319 320 322 326 330 333 334 335 334 331 329 328 327 328 326 323 325 327 325 321 319 318 317 315 315 313 312 312 312 312 312 312 311 311 311 311 309 307 307
290 301 311 316 316 320 324 327 331 333 334 332 329 327 328 328 327 325 326 329 330 326 322 318 316 315 315 315 313 313 314 313 312 312 311 310 310 310 308 306 305 307
287 301 310 311 312 317 322 325 330 332 331 330 329 330 331 331 329 330 331 332 330 326 322 316 312 312 315 315 314 315 315 313 311 310 310 311 312 311 309 306 305 306
286 303 310 308 309 317 321 325 329 331 331 332 333 334 335 334 332 331 330 330 330 329 327 322 315 314 316 317 317 317 314 310 308 309 311 313 313 313 312 309 306 306
286 302 306 306 311 318 321 325 329 332 334 335 334 334 334 332 329 326 326 329 331 330 327 324 321 319 318 318 318 316 312 308 308 309 312 314 314 313 312 310 309 308
288 301 302 305 312 317 321 325 330 333 336 334 331 329 327 325 324 324 327 329 329 327 324 323 323 322 320 318 316 313 310 308 307 307 311 313 313 312 311 310 310 309
291 298 297 304 311 316 321 326 330 334 335 333 329 327 326 327 327 327 327 326 324 324 324 324 324 322 320 317 315 312 310 307 306 308 311 312 311 311 311 311 312 312
296 296 296 304 311 316 322 327 332 336 338 337 335 332 333 333 329 325 323 321 323 325 324 323 321 320 318 316 314 312 309 307 308 310 312 312 312 313 314 315 316 316
297 293 298 306 312 318 323 327 333 338 341 343 340 335 334 331 328 325 321 321 324 324 323 321 318 317 317 316 314 312 310 310 311 313 315 317 317 316 316 317 317 317
293 292 300 307 313 319 322 326 332 336 338 341 341 339 336 333 330 328 324 322 323 324 324 321 318 318 318 317 315 313 313 314 315 317 319 319 318 317 317 318 318 318
287 294 302 308 314 317 320 324 329 331 331 334 336 336 336 334 332 329 325 323 325 327 327 323 320 320 320 318 316 313 314 316 316 318 318 317 316 316 318 320 319 319
285 295 302 309 313 314 317 322 325 326 327 328 329 329 331 331 328 327 326 326 328 330 329 327 325 324 320 317 314 313 313 315 316 317 317 316 316 316 317 319 320 319
288 296 302 307 309 311 314 318 319 321 323 323 324 325 326 327 325 325 326 327 328 330 331 330 329 325 318 315 315 314 312 313 315 315 315 316 316 315 316 317 319 319
290 296 301 304 306 309 312 314 315 317 318 319 320 321 323 324 324 324 325 326 327 329 330 329 326 322 317 315 316 314 311 312 314 313 313 314 314 314 314 315 316 317
294 297 300 302 305 307 309 311 312 314 315 317 318 318 320 322 323 322 322 323 324 325 325 325 322 319 317 315 314 312 311 312 312 312 311 312 311 312 312 311 312 314
296 297 299 302 305 307 308 309 310 311 313 313 313 314 316 318 320 320 318 318 319 319 321 322 320 317 315 314 312 310 310 309 309 311 311 310 310 310 309 308 310 313
296 298 300 301 304 304 304 306 306 307 308 307 307 309 311 313 316 316 315 315 315 317 318 319 319 318 316 312 308 309 309 308 309 312 312 311 311 311 308 307 310 312
295 296 298 299 301 302 302 303 303 303 303 301 301 305 307 309 312 312 312 314 315 316 315 314 317 320 317 309 305 307 309 307 308 311 313 313 312 309 307 308 310 312
298 299 301 301 301 301 300 300 300 300 298 296 299 304 306 307 308 308 310 313 315 317 314 312 315 317 313 306 303 306 308 305 304 307 310 312 311 309 308 310 311 312
307 309 308 307 306 304 302 300 298 296 294 291 292 298 301 303 305 306 309 313 316 318 316 312 312 311 308 304 302 304 306 303 302 304 306 309 311 310 310 311 311 311
Height
3199 3198 3197 3196 3195 3193 3192 3189 3188 3186 3185 3183 3182 3181 3179 3178 3177 3176 3175 3174 3173 3172 3171 3170 3168 3167 3166 3166 3165 3164 3163 3163 3162 3161 3159 3158 3158 3157 3155 3155 3154 3153
3197 3196 3196 3195 3193 3192 3190 3188 3186 3184 3183 3181 3180 3179 3178 3176 3175 3174 3173 3172 3171 3170 3169 3167 3166 3165 3165 3164 3163 3162 3161 3161 3160 3159 3158 3156 3155 3154 3153 3152 3151 3151
3195 3194 3194 3193 3191 3190 3188 3186 3184 3182 3181 3179 3178 3177 3176 3175 3174 3172 3171 3170 3169 3167 3166 3165 3164 3163 3162 3162 3161 3160 3159 3159 3158 3157 3156 3155 3153 3152 3151 3150 3149 3148
3192 3192 3191 3191 3189 3187 3186 3184 3182 3180 3179 3178 3176 3175 3174 3173 3172 3170 3169 3168 3166 3165 3164 3162 3161 3160 3160 3159 3159 3158 3157 3156 3155 3154 3153 3152 3151 3150 3149 3148 3147 3146
3190 3189 3189 3188 3186 3185 3183 3181 3180 3178 3177 3176 3175 3173 3172 3171 3169 3168 3167 3165 3164 3163 3161 3160 3159 3158 3157 3156 3156 3155 3154 3153 3152 3151 3151 3150 3149 3148 3147 3146 3145 3144
3187 3187 3186 3185 3184 3183 3181 3179 3177 3176 3175 3174 3172 3171 3170 3168 3167 3166 3164 3163 3162 3160 3159 3158 3156 3156 3155 3154 3153 3152 3152 3150 3149 3149 3148 3147 3146 3145 3144 3143 3142 3141
3184 3184 3183 3183 3182 3180 3179 3177 3175 3173 3172 3171 3170 3169 3168 3167 3165 3164 3163 3161 3159 3158 3156 3155 3154 3153 3152 3151 3151 3150 3149 3148 3147 3146 3145 3144 3143 3142 3141 3140 3139 3138
3182 3181 3181 3180 3180 3178 3177 3175 3173 3171 3169 3168 3167 3167 3166 3164 3163 3162 3161 3159 3157 3156 3154 3153 3152 3151 3150 3149 3148 3147 3147 3146 3144 3144 3143 3142 3141 3139 3138 3137 3136 3135
3180 3179 3179 3179 3178 3176 3175 3173 3170 3168 3167 3166 3165 3164 3162 3161 3160 3159 3157 3156 3155 3154 3153 3152 3150 3149 3148 3147 3146 3145 3144 3143 3142 3141 3140 3139 3138 3137 3136 3135 3134 3133
3177 3177 3177 3177 3175 3174 3172 3170 3168 3166 3164 3162 3160 3159 3158 3157 3156 3155 3154 3154 3153 3152 3151 3150 3148 3147 3146 3145 3144 3143 3142 3141 3140 3139 3138 3137 3136 3134 3133 3132 3131 3130
3175 3175 3175 3174 3172 3171 3169 3167 3165 3163 3161 3159 3157 3156 3156 3155 3154 3153 3152 3151 3150 3149 3148 3147 3146 3145 3144 3143 3142 3141 3139 3138 3137 3137 3136 3135 3133 3132 3131 3129 3128 3127
3173 3173 3173 3171 3170 3168 3166 3164 3162 3161 3159 3158 3157 3156 3156 3155 3154 3152 3151 3149 3148 3147 3146 3145 3144 3143 3142 3141 3140 3138 3137 3136 3136 3135 3134 3133 3131 3130 3129 3127 3126 3124
3171 3171 3170 3169 3168 3166 3164 3162 3161 3159 3159 3158 3157 3156 3154 3153 3152 3150 3149 3148 3147 3146 3144 3142 3141 3140 3139 3138 3137 3136 3135 3134 3133 3132 3132 3131 3129 3128 3126 3125 3123 3121
3169 3168 3167 3166 3165 3163 3161 3160 3159 3157 3156 3155 3154 3153 3152 3151 3150 3149 3148 3147 3145 3144 3142 3140 3139 3138 3137 3135 3134 3133 3132 3131 3130 3130 3129 3128 3127 3126 3124 3122 3120 3118
3166 3165 3164 3163 3161 3160 3158 3157 3156 3155 3154 3153 3153 3152 3151 3150 3149 3147 3146 3145 3143 3142 3140 3138 3137 3136 3134 3133 3131 3130 3130 3129 3127 3126 3126 3125 3124 3123 3121 3119 3117 3115
3163 3162 3161 3160 3158 3156 3155 3154 3153 3153 3153 3152 3151 3150 3149 3148 3147 3145 3144 3142 3141 3140 3138 3136 3135 3133 3132 3130 3129 3128 3127 3125 3124 3123 3122 3121 3120 3119 3118 3117 3115 3113
3160 3159 3158 3156 3155 3153 3152 3152 3151 3151 3151 3150 3149 3148 3147 3145 3144 3143 3141 3140 3138 3137 3135 3134 3132 3131 3130 3128 3127 3125 3124 3122 3121 3120 3119 3118 3117 3116 3115 3113 3112 3110
3157 3156 3155 3153 3152 3151 3150 3150 3149 3149 3148 3147 3146 3145 3144 3143 3142 3141 3139 3137 3135 3134 3133 3131 3130 3129 3127 3126 3124 3123 3121 3120 3119 3118 3117 3116 3114 3113 3112 3110 3109 3107
3155 3154 3153 3151 3150 3149 3148 3147 3147 3146 3145 3145 3144 3142 3141 3140 3139 3138 3136 3134 3132 3131 3130 3128 3127 3126 3125 3123 3121 3120 3118 3117 3116 3115 3114 3113 3112 3110 3109 3107 3106 3104
3153 3151 3150 3149 3148 3147 3146 3145 3144 3144 3143 3142 3141 3140 3139 3138 3136 3135 3134 3132 3130 3128 3126 3126 3125 3124 3122 3120 3118 3117 3115 3114 3113 3112 3111 3110 3109 3107 3106 3104 3103 3101
3150 3149 3148 3147 3146 3144 3143 3142 3142 3141 3140 3139 3138 3137 3136 3135 3133 3132 3130 3129 3127 3125 3124 3123 3122 3121 3119 3117 3116 3114 3112 3111 3109 3109 3108 3107 3106 3104 3103 3102 3100 3098
3147 3146 3145 3144 3143 3142 3140 3139 3139 3138 3137 3136 3135 3134 3133 3132 3131 3129 3127 3126 3124 3122 3121 3120 3119 3118 3116 3114 3113 3111 3109 3108 3106 3105 3104 3104 3103 3102 3100 3099 3097 3095
3144 3143 3142 3141 3140 3138 3137 3136 3135 3134 3134 3132 3131 3131 3130 3129 3128 3126 3125 3123 3121 3119 3117 3117 3117 3116 3114 3112 3110 3108 3106 3105 3103 3102 3101 3100 3100 3099 3098 3096 3095 3092
3141 3140 3139 3138 3136 3135 3134 3133 3132 3131 3130 3129 3128 3128 3127 3126 3125 3123 3121 3120 3118 3116 3114 3113 3113 3113 3111 3109 3107 3105 3104 3102 3100 3099 3098 3098 3097 3096 3095 3093 3092 3090
3138 3137 3136 3134 3133 3131 3130 3130 3129 3128 3127 3126 3125 3125 3124 3123 3122 3120 3118 3116 3114 3112 3111 3110 3109 3109 3108 3106 3104 3102 3101 3099 3098 3097 3096 3095 3094 3093 3092 3091 3089 3087
3134 3133 3131 3130 3128 3127 3126 3126 3125 3124 3123 3122 3122 3121 3119 3119 3118 3116 3115 3113 3111 3110 3108 3107 3106 3105 3104 3102 3100 3099 3098 3096 3095 3094 3093 3092 3092 3090 3089 3088 3086 3084